Tracking 20093 objects as of 14-Dec-2019
HD Live streaming from Space Station
objects crossing your sky now

COSMOS 2251 DEB

Track COSMOS 2251 DEB now!
10-day predictions


NORAD ID: 34790
Int'l Code: 1993-036AAT
Perigee: 761.9 km
Apogee: 918.3 km
Inclination: 74.1 °
Period: 101.6 minutes
Semi major axis: 7211 km
RCS: 0.0196 m2 (small)
Launch date: June 16, 1993
Source: Commonwealth of Independent States (former USSR) (CIS)
Launch site: PLESETSK MISSILE AND SPACE COMPLEX (PKMTR)

Note: This is SATELLITE DEBRIS
aabbcc
Your satellite tracking list
Your tracking list is empty




NASA's NSSDC Master Catalog

Two Line Element Set (TLE):
1 34790U 93036AAT 19347.85049802  .00000513  00000-0  24857-3 0  9992
2 34790  74.0550 197.5023 0108435  70.3758 301.8685 14.17759988556202
Source of the keplerian elements: AFSPC